Flag Weather past 2 weeks in Memphis, Tennessee, U.S.A.

Now
44 °F

Partly sunny.


Feels Like: 39 °F
Forecast: 33 / 44 °F
Wind: 10 mph from North

Location: Memphis International Airport

Current Time: Nov 27, 2014 at 11:54:12 AM

Latest Report: Nov 27, 2014 at 10:54 AM


Visibility: 10 mi

Pressure: 30.50 "Hg

Humidity: 55%

Dew point: 29 °F

Location of MemphisLocation

Historic Weather in Memphis — Graph

°F

Memphis temperature yesterday

Maximum temperature yesterday: 51 °F (at 1:54 PM)
Minimum temperature yesterday: 32 °F (at 1:54 AM)
Average temperature yesterday: 42 °F

Past Weeks' High & Low Weather Summary

 TemperatureHumidityPressure
High65 °F (Nov 22, 11:54 AM)93% (Nov 16, 5:54 AM)30.50 "Hg (Nov 16, 5:54 AM)
Low21 °F (Nov 18, 5:54 AM)27% (Nov 15, 4:54 PM)29.31 "Hg (Nov 23, 2:54 PM)
Average42 °F60%30.18 "Hg
* Reported Nov 12 10:54 AM — Nov 27 10:54 AM, Memphis, Weather by CustomWeather, © 2014

Note: Actual official high and low records may vary slightly from our data, if they occured in-between our weather recording intervals... More about our weather records

Advertising

Memphis weather history for previous 24 hours

 ConditionsComfort  
Time TempWeatherWind HumidityBarometerVisibility
10:54 AM
Nov 27
44 °FPartly sunny.10 mph55%30.50 "Hg10 mi
9:54 AM44 °FScattered clouds.14 mph53%30.49 "Hg10 mi
8:54 AM40 °FPartly sunny.12 mph63%30.47 "Hg10 mi
7:54 AM39 °FPartly sunny.12 mph65%30.45 "Hg10 mi
6:54 AM39 °FOvercast.12 mph65%30.43 "Hg10 mi
6:01 AM39 °FOvercast.13 mph65%30.40 "Hg10 mi
4:54 AM40 °FOvercast.13 mph63%30.36 "Hg10 mi
3:54 AM40 °FOvercast.15 mph65%30.33 "Hg10 mi
2:54 AM40 °FPassing clouds.12 mph65%30.29 "Hg10 mi
1:54 AM41 °FPassing clouds.16 mph60%30.26 "Hg10 mi
12:54 AM42 °FPassing clouds.15 mph55%30.23 "Hg10 mi
11:54 PM
Nov 26
44 °FClear.12 mph53%30.20 "Hg10 mi
10:54 PM43 °FClear.13 mph58%30.18 "Hg10 mi
9:54 PM44 °FPassing clouds.No wind63%30.17 "Hg10 mi
8:54 PM44 °FPassing clouds.7 mph68%30.16 "Hg10 mi
7:54 PM43 °FPassing clouds.3 mph71%30.14 "Hg10 mi
6:54 PM45 °FPassing clouds.No wind65%30.13 "Hg10 mi
5:54 PM46 °FPassing clouds.7 mph63%30.12 "Hg10 mi
4:54 PM46 °FPassing clouds.12 mph63%30.08 "Hg10 mi
3:54 PM50 °FPassing clouds.10 mph54%30.05 "Hg10 mi
2:54 PM51 °FPartly sunny.13 mph61%30.01 "Hg10 mi
1:54 PM51 °FOvercast.8 mph46%30.00 "Hg10 mi
12:54 PM50 °FLight rain. Cloudy.12 mph46%29.96 "Hg10 mi
11:54 AM50 °FOvercast.16 mph44%30.01 "Hg10 mi
Weather by CustomWeather, © 2014

See weather overviewHow to use our weather pages